| time (UTC) | temp F | wind direction | speed MPH | gust MPH | rain 1hr in | rain 24hr in | rain mn in | humidity % | barometer mb |
| 20260502183824 | 74 | 38 | 3.0 | 9.0 | 0.00 | 0.00 | 0.00 | 37 | 1021.0 |
| 20260502183320 | 75 | 9 | 3.0 | 8.0 | 0.00 | 0.00 | 0.00 | 34 | 1021.0 |
| 20260502182840 | 75 | 216 | 2.0 | 8.0 | 0.00 | 0.00 | 0.00 | 37 | 1021.3 |
| 20260502182821 | 75 | 321 | 2.0 | 8.0 | 0.00 | 0.00 | 0.00 | 36 | 1021.2 |
| 20260502181820 | 74 | 206 | 2.0 | 7.0 | 0.00 | 0.00 | 0.00 | 39 | 1021.3 |
| 20260502181319 | 74 | 266 | 3.0 | 9.0 | 0.00 | 0.00 | 0.00 | 36 | 1021.3 |
| 20260502180819 | 74 | 194 | 3.0 | 9.0 | 0.00 | 0.00 | 0.00 | 38 | 1021.4 |
| 20260502180317 | 74 | 203 | 2.0 | 6.0 | 0.00 | 0.00 | 0.00 | 36 | 1021.4 |
| 20260502170302 | 73 | 259 | 1.0 | 3.0 | 0.00 | 0.00 | 0.00 | 37 | 1022.1 |
| 20260502163802 | 73 | 0 | 2.0 | 4.0 | 0.00 | 0.00 | 0.00 | 41 | 1022.2 |
| 20260502163559 | 72 | 186 | 1.0 | 4.0 | 0.00 | 0.00 | 0.00 | 42 | 1022.2 |
| 20260502162757 | 72 | 277 | 2.0 | 4.0 | 0.00 | 0.00 | 0.00 | 43 | 1022.2 |
| 20260502162258 | 72 | 239 | 2.0 | 5.0 | 0.00 | 0.00 | 0.00 | 42 | 1022.2 |
| 20260502162052 | 71 | 279 | 2.0 | 5.0 | 0.00 | 0.00 | 0.00 | 40 | 1022.2 |
| 20260502161257 | 71 | 5 | 2.0 | 5.0 | 0.00 | 0.00 | 0.00 | 43 | 1022.1 |
| 20260502160757 | 71 | 350 | 2.0 | 4.0 | 0.00 | 0.00 | 0.00 | 44 | 1022.2 |
| 20260502160258 | 70 | 337 | 2.0 | 4.0 | 0.00 | 0.00 | 0.00 | 45 | 1022.2 |
| 20260502152253 | 68 | 309 | 1.0 | 4.0 | 0.00 | 0.00 | 0.00 | 51 | 1022.0 |
| 20260502151747 | 67 | 288 | 1.0 | 5.0 | 0.00 | 0.00 | 0.00 | 51 | 1022.1 |
| 20260502151247 | 67 | 13 | 2.0 | 5.0 | 0.00 | 0.00 | 0.00 | 51 | 1022.0 |
| 20260502150745 | 66 | 343 | 2.0 | 4.0 | 0.00 | 0.00 | 0.00 | 52 | 1022.0 |
| 20260502150245 | 66 | 319 | 2.0 | 5.0 | 0.00 | 0.00 | 0.00 | 54 | 1021.9 |
| 20260502130738 | 52 | 12 | 1.0 | 3.0 | 0.00 | 0.00 | 0.00 | 95 | 1021.1 |
| 20260502130232 | 52 | 12 | 0.0 | 3.0 | 0.00 | 0.00 | 0.00 | 95 | 1021.2 |
| 20260502123730 | 48 | 254 | 0.0 | 0.0 | 0.00 | 0.00 | 0.00 | 94 | 1020.7 |
| 20260502123230 | 48 | 198 | 0.0 | 0.0 | 0.00 | 0.00 | 0.00 | 94 | 1020.6 |
| 20260502122727 | 47 | 190 | 0.0 | 0.0 | 0.00 | 0.00 | 0.00 | 94 | 1020.5 |
| 20260502122521 | 47 | 190 | 0.0 | 0.0 | 0.00 | 0.00 | 0.00 | 93 | 1020.4 |
| 20260502121725 | 47 | 190 | 0.0 | 0.0 | 0.00 | 0.00 | 0.00 | 93 | 1020.2 |
| 20260502121224 | 47 | 190 | 0.0 | 0.0 | 0.00 | 0.00 | 0.00 | 93 | 1020.1 |
| 20260502121020 | 47 | 190 | 0.0 | 0.0 | 0.00 | 0.00 | 0.00 | 93 | 1020.1 |
| 20260502120222 | 47 | 190 | 0.0 | 0.0 | 0.00 | 0.00 | 0.00 | 93 | 1020.1 |
| 20260502115723 | 47 | 190 | 0.0 | 0.0 | 0.00 | 0.00 | 0.00 | 93 | 1020.0 |
| 20260502115219 | 47 | 190 | 0.0 | 0.0 | 0.00 | 0.00 | 0.00 | 93 | 1020.0 |
| 20260502114713 | 47 | 190 | 0.0 | 0.0 | 0.00 | 0.00 | 0.00 | 93 | 1019.9 |
| 20260502114207 | 47 | 190 | 0.0 | 0.0 | 0.00 | 0.00 | 0.00 | 93 | 1019.8 |
| 20260502113702 | 47 | 190 | 0.0 | 0.0 | 0.00 | 0.00 | 0.00 | 93 | 1019.7 |
| 20260502113202 | 47 | 190 | 0.0 | 0.0 | 0.00 | 0.00 | 0.00 | 93 | 1019.8 |
| 20260502112959 | 47 | 190 | 0.0 | 0.0 | 0.00 | 0.00 | 0.00 | 93 | 1019.7 |
| 20260502112202 | 47 | 190 | 0.0 | 0.0 | 0.00 | 0.00 | 0.00 | 93 | 1019.5 |
| 20260502111701 | 47 | 190 | 0.0 | 0.0 | 0.00 | 0.00 | 0.00 | 93 | 1019.5 |
| 20260502111455 | 47 | 190 | 0.0 | 0.0 | 0.00 | 0.00 | 0.00 | 92 | 1019.5 |
| 20260502110704 | 47 | 190 | 0.0 | 0.0 | 0.00 | 0.00 | 0.00 | 92 | 1019.6 |
| 20260502110203 | 47 | 190 | 0.0 | 0.0 | 0.00 | 0.00 | 0.00 | 92 | 1019.5 |
| 20260502105701 | 47 | 190 | 0.0 | 0.0 | 0.00 | 0.00 | 0.00 | 92 | 1019.4 |
| 20260502105203 | 48 | 190 | 0.0 | 0.0 | 0.00 | 0.00 | 0.00 | 92 | 1019.4 |
| 20260502104703 | 48 | 190 | 0.0 | 0.0 | 0.00 | 0.00 | 0.00 | 92 | 1019.3 |
| 20260502104202 | 48 | 190 | 0.0 | 0.0 | 0.00 | 0.00 | 0.00 | 92 | 1019.2 |
| 20260502103701 | 48 | 190 | 0.0 | 0.0 | 0.00 | 0.00 | 0.00 | 92 | 1019.2 |
| 20260502103201 | 48 | 190 | 0.0 | 0.0 | 0.00 | 0.00 | 0.00 | 92 | 1019.1 |
| 20260502102704 | 48 | 190 | 0.0 | 0.0 | 0.00 | 0.00 | 0.00 | 92 | 1018.9 |
| 20260502102159 | 48 | 190 | 0.0 | 0.0 | 0.00 | 0.00 | 0.00 | 92 | 1019.0 |
| 20260502101954 | 48 | 190 | 0.0 | 0.0 | 0.00 | 0.00 | 0.00 | 92 | 1019.0 |
| 20260502101157 | 48 | 190 | 0.0 | 0.0 | 0.00 | 0.00 | 0.00 | 91 | 1018.9 |
| 20260502100658 | 48 | 190 | 0.0 | 0.0 | 0.00 | 0.00 | 0.00 | 91 | 1018.9 |
| 20260502100155 | 48 | 190 | 0.0 | 0.0 | 0.00 | 0.00 | 0.00 | 91 | 1018.9 |
| 20260502090645 | 49 | 190 | 0.0 | 0.0 | 0.00 | 0.00 | 0.00 | 91 | 1018.9 |
| 20260502090149 | 49 | 190 | 0.0 | 0.0 | 0.00 | 0.00 | 0.00 | 91 | 1018.9 |
| 20260502071129 | 52 | 190 | 0.0 | 0.0 | 0.00 | 0.00 | 0.00 | 87 | 1019.2 |
| 20260502070627 | 52 | 190 | 0.0 | 0.0 | 0.00 | 0.00 | 0.00 | 86 | 1019.2 |
| 20260502070236 | 53 | 190 | 0.0 | 0.0 | 0.00 | 0.00 | 0.00 | 86 | 1019.2 |
| 20260502070215 | 53 | 190 | 0.0 | 0.0 | 0.00 | 0.00 | 0.00 | 86 | 1019.3 |
| 20260502065419 | 53 | 190 | 0.0 | 0.0 | 0.00 | 0.00 | 0.00 | 86 | 1019.2 |
| 20260502064625 | 53 | 190 | 0.0 | 0.0 | 0.00 | 0.00 | 0.00 | 86 | 1019.2 |
| 20260502064125 | 54 | 190 | 0.0 | 0.0 | 0.00 | 0.00 | 0.00 | 86 | 1019.2 |
| 20260502063625 | 54 | 190 | 0.0 | 0.0 | 0.00 | 0.00 | 0.00 | 85 | 1019.1 |
| 20260502063125 | 54 | 190 | 0.0 | 0.0 | 0.00 | 0.00 | 0.00 | 85 | 1019.2 |
| 20260502062630 | 54 | 190 | 0.0 | 0.0 | 0.00 | 0.00 | 0.00 | 85 | 1019.3 |
| 20260502062125 | 54 | 190 | 0.0 | 0.0 | 0.00 | 0.00 | 0.00 | 84 | 1019.3 |
| 20260502061639 | 55 | 190 | 0.0 | 0.0 | 0.00 | 0.00 | 0.00 | 84 | 1019.2 |
| 20260502061623 | 55 | 190 | 0.0 | 0.0 | 0.00 | 0.00 | 0.00 | 84 | 1019.3 |
| 20260502060622 | 55 | 190 | 0.0 | 0.0 | 0.00 | 0.00 | 0.00 | 84 | 1019.1 |
| 20260502060123 | 55 | 190 | 0.0 | 0.0 | 0.00 | 0.00 | 0.00 | 83 | 1019.0 |
| 20260502055623 | 56 | 190 | 0.0 | 0.0 | 0.00 | 0.00 | 0.00 | 83 | 1019.0 |
| 20260502055122 | 56 | 190 | 0.0 | 0.0 | 0.00 | 0.00 | 0.00 | 82 | 1019.2 |
| 20260502054622 | 56 | 190 | 0.0 | 0.0 | 0.00 | 0.00 | 0.00 | 82 | 1019.0 |
| 20260502054122 | 56 | 190 | 0.0 | 0.0 | 0.00 | 0.00 | 0.00 | 82 | 1019.0 |
| 20260502053623 | 56 | 190 | 0.0 | 0.0 | 0.00 | 0.00 | 0.00 | 82 | 1019.0 |
| 20260502053122 | 56 | 190 | 0.0 | 0.0 | 0.00 | 0.00 | 0.00 | 82 | 1018.9 |
| 20260502052622 | 56 | 190 | 0.0 | 0.0 | 0.00 | 0.00 | 0.00 | 81 | 1019.0 |
| 20260502052122 | 56 | 190 | 0.0 | 1.0 | 0.00 | 0.00 | 0.00 | 81 | 1018.9 |
| 20260502051622 | 56 | 189 | 0.0 | 1.0 | 0.00 | 0.00 | 0.00 | 81 | 1018.8 |
| 20260502051121 | 56 | 148 | 0.0 | 0.0 | 0.00 | 0.00 | 0.00 | 80 | 1018.9 |
| 20260502050618 | 57 | 148 | 0.0 | 0.0 | 0.00 | 0.00 | 0.00 | 79 | 1018.9 |
| 20260502050117 | 57 | 148 | 0.0 | 0.0 | 0.00 | 0.00 | 0.00 | 78 | 1019.0 |
| 20260502045617 | 57 | 148 | 0.0 | 0.0 | 0.00 | 0.00 | 0.00 | 78 | 1019.0 |
| 20260502045114 | 57 | 148 | 0.0 | 0.0 | 0.00 | 0.00 | 0.00 | 78 | 1019.0 |
| 20260502044614 | 58 | 148 | 0.0 | 0.0 | 0.00 | 0.00 | 0.00 | 77 | 1018.8 |
| 20260502044116 | 58 | 148 | 0.0 | 0.0 | 0.00 | 0.00 | 0.00 | 77 | 1019.0 |
| 20260502043858 | 58 | 148 | 0.0 | 0.0 | 0.00 | 0.00 | 0.00 | 76 | 1018.8 |
| 20260502043110 | 58 | 148 | 0.0 | 0.0 | 0.00 | 0.00 | 0.00 | 76 | 1018.8 |
| 20260502042609 | 58 | 148 | 0.0 | 0.0 | 0.00 | 0.00 | 0.00 | 75 | 1018.8 |
| 20260502042108 | 58 | 148 | 0.0 | 0.0 | 0.00 | 0.00 | 0.00 | 75 | 1018.7 |
| 20260502041901 | 58 | 148 | 0.0 | 0.0 | 0.00 | 0.00 | 0.00 | 75 | 1018.7 |
| 20260502041107 | 59 | 148 | 0.0 | 0.0 | 0.00 | 0.00 | 0.00 | 74 | 1018.8 |
| 20260502040601 | 59 | 148 | 0.0 | 0.0 | 0.00 | 0.00 | 0.00 | 74 | 1018.8 |
| 20260502035600 | 59 | 148 | 0.0 | 0.0 | 0.00 | 0.00 | 0.00 | 73 | 1018.7 |
| 20260502035101 | 59 | 148 | 0.0 | 0.0 | 0.00 | 0.00 | 0.00 | 73 | 1018.7 |
| 20260502034600 | 60 | 148 | 0.0 | 0.0 | 0.00 | 0.00 | 0.00 | 73 | 1018.7 |
| 20260502034058 | 60 | 148 | 0.0 | 0.0 | 0.00 | 0.00 | 0.00 | 72 | 1018.8 |
| 20260502033558 | 60 | 148 | 0.0 | 0.0 | 0.00 | 0.00 | 0.00 | 71 | 1018.8 |
| 20260502033058 | 60 | 148 | 0.0 | 0.0 | 0.00 | 0.00 | 0.00 | 71 | 1018.7 |
| 20260502032559 | 60 | 148 | 0.0 | 0.0 | 0.00 | 0.00 | 0.00 | 70 | 1018.7 |
| 20260502032056 | 61 | 148 | 0.0 | 0.0 | 0.00 | 0.00 | 0.00 | 70 | 1018.6 |
| 20260502031556 | 61 | 148 | 0.0 | 0.0 | 0.00 | 0.00 | 0.00 | 69 | 1018.5 |
| 20260502031151 | 61 | 148 | 0.0 | 0.0 | 0.00 | 0.00 | 0.00 | 69 | 1018.4 |
| 20260502031131 | 61 | 148 | 0.0 | 0.0 | 0.00 | 0.00 | 0.00 | 69 | 1018.5 |
| 20260502030055 | 61 | 148 | 0.0 | 0.0 | 0.00 | 0.00 | 0.00 | 68 | 1018.5 |
| 20260502025552 | 61 | 148 | 0.0 | 0.0 | 0.00 | 0.00 | 0.00 | 68 | 1018.3 |
| 20260502025056 | 62 | 148 | 0.0 | 0.0 | 0.00 | 0.00 | 0.00 | 67 | 1018.2 |
| 20260502024553 | 62 | 148 | 0.0 | 0.0 | 0.00 | 0.00 | 0.00 | 67 | 1018.0 |
| 20260502024052 | 62 | 148 | 0.0 | 0.0 | 0.00 | 0.00 | 0.00 | 67 | 1018.1 |
| 20260502023550 | 62 | 148 | 0.0 | 0.0 | 0.00 | 0.00 | 0.00 | 66 | 1018.1 |
| 20260502023050 | 62 | 148 | 0.0 | 0.0 | 0.00 | 0.00 | 0.00 | 66 | 1018.1 |
| 20260502022551 | 62 | 148 | 0.0 | 0.0 | 0.00 | 0.00 | 0.00 | 66 | 1018.1 |
| 20260502022342 | 63 | 138 | 0.0 | 0.0 | 0.00 | 0.00 | 0.00 | 66 | 1018.2 |
| 20260502021643 | 63 | 138 | 0.0 | 0.0 | 0.00 | 0.00 | 0.00 | 65 | 1017.9 |
| 20260502021619 | 63 | 138 | 0.0 | 0.0 | 0.00 | 0.00 | 0.00 | 66 | 1018.0 |
| 20260502020841 | 63 | 128 | 0.0 | 2.0 | 0.00 | 0.00 | 0.00 | 65 | 1017.8 |
| 20260502020049 | 63 | 128 | 0.0 | 2.0 | 0.00 | 0.00 | 0.00 | 65 | 1017.7 |
| 20260502015544 | 63 | 162 | 0.0 | 2.0 | 0.00 | 0.00 | 0.00 | 64 | 1017.5 |
| 20260502015342 | 63 | 148 | 0.0 | 0.0 | 0.00 | 0.00 | 0.00 | 64 | 1017.4 |
| 20260502014545 | 63 | 148 | 0.0 | 0.0 | 0.00 | 0.00 | 0.00 | 64 | 1017.3 |
| 20260502014045 | 63 | 108 | 0.0 | 0.0 | 0.00 | 0.00 | 0.00 | 63 | 1017.0 |
| 20260502013546 | 63 | 103 | 0.0 | 0.0 | 0.00 | 0.00 | 0.00 | 62 | 1017.0 |
| 20260502013045 | 64 | 102 | 0.0 | 1.0 | 0.00 | 0.00 | 0.00 | 62 | 1016.8 |
| 20260502012545 | 64 | 102 | 0.0 | 2.0 | 0.00 | 0.00 | 0.00 | 62 | 1016.6 |
| 20260502012339 | 64 | 102 | 0.0 | 2.0 | 0.00 | 0.00 | 0.00 | 61 | 1016.7 |
| 20260502011831 | 64 | 148 | 0.0 | 1.0 | 0.00 | 0.00 | 0.00 | 61 | 1016.4 |
| 20260502011039 | 64 | 148 | 0.0 | 2.0 | 0.00 | 0.00 | 0.00 | 60 | 1016.5 |
| 20260502010540 | 64 | 148 | 0.0 | 2.0 | 0.00 | 0.00 | 0.00 | 60 | 1016.4 |
| 20260502010042 | 64 | 123 | 0.0 | 2.0 | 0.00 | 0.00 | 0.00 | 60 | 1016.4 |
| 20260502005540 | 64 | 134 | 0.0 | 2.0 | 0.00 | 0.00 | 0.00 | 59 | 1016.3 |
| 20260502005040 | 65 | 140 | 0.0 | 2.0 | 0.00 | 0.00 | 0.00 | 59 | 1016.3 |
| 20260502004828 | 65 | 126 | 0.0 | 1.0 | 0.00 | 0.00 | 0.00 | 59 | 1016.2 |
| 20260502004037 | 65 | 126 | 0.0 | 2.0 | 0.00 | 0.00 | 0.00 | 58 | 1016.0 |
| 20260502003536 | 65 | 131 | 0.0 | 2.0 | 0.00 | 0.00 | 0.00 | 58 | 1016.0 |
| 20260502003033 | 65 | 184 | 0.0 | 1.0 | 0.00 | 0.00 | 0.00 | 58 | 1016.0 |
| 20260502002534 | 65 | 148 | 0.0 | 2.0 | 0.00 | 0.00 | 0.00 | 58 | 1015.9 |
| 20260502002036 | 65 | 96 | 0.0 | 2.0 | 0.00 | 0.00 | 0.00 | 57 | 1015.8 |
| 20260502001534 | 65 | 97 | 1.0 | 3.0 | 0.00 | 0.00 | 0.00 | 57 | 1015.8 |
| 20260502001034 | 66 | 100 | 1.0 | 3.0 | 0.00 | 0.00 | 0.00 | 56 | 1015.7 |
| 20260502000830 | 66 | 91 | 0.0 | 3.0 | 0.00 | 0.00 | 0.00 | 57 | 1015.6 |
| 20260502000034 | 66 | 35 | 0.0 | 2.0 | 0.00 | 0.00 | 0.00 | 56 | 1015.6 |
| 20260501235530 | 66 | 35 | 0.0 | 2.0 | 0.00 | 0.00 | 0.00 | 56 | 1015.5 |
| 20260501235129 | 66 | 36 | 0.0 | 2.0 | 0.00 | 0.00 | 0.00 | 56 | 1015.4 |
| 20260501235105 | 66 | 30 | 0.0 | 2.0 | 0.00 | 0.00 | 0.00 | 56 | 1015.4 |
| 20260501234030 | 66 | 49 | 1.0 | 2.0 | 0.00 | 0.00 | 0.00 | 56 | 1015.3 |
| 20260501233616 | 66 | 47 | 1.0 | 3.0 | 0.00 | 0.00 | 0.00 | 55 | 1015.3 |
| 20260501233030 | 66 | 5 | 1.0 | 3.0 | 0.00 | 0.00 | 0.00 | 55 | 1015.3 |
| 20260501232530 | 66 | 87 | 1.0 | 3.0 | 0.00 | 0.00 | 0.00 | 55 | 1015.2 |
| 20260501232028 | 66 | 100 | 1.0 | 2.0 | 0.00 | 0.00 | 0.00 | 55 | 1015.2 |
| 20260501231528 | 66 | 304 | 1.0 | 3.0 | 0.00 | 0.00 | 0.00 | 55 | 1015.1 |
| 20260501231028 | 66 | 151 | 1.0 | 3.0 | 0.00 | 0.00 | 0.00 | 56 | 1015.1 |
| 20260501230527 | 66 | 42 | 1.0 | 3.0 | 0.00 | 0.00 | 0.00 | 56 | 1015.1 |
| 20260501230028 | 66 | 56 | 1.0 | 3.0 | 0.00 | 0.00 | 0.00 | 55 | 1015.0 |
| 20260501225528 | 67 | 176 | 1.0 | 4.0 | 0.00 | 0.00 | 0.00 | 55 | 1015.0 |
| 20260501225027 | 67 | 80 | 1.0 | 4.0 | 0.00 | 0.00 | 0.00 | 55 | 1015.0 |
| 20260501224527 | 67 | 81 | 1.0 | 4.0 | 0.00 | 0.00 | 0.00 | 56 | 1015.0 |
| 20260501224029 | 67 | 74 | 1.0 | 4.0 | 0.00 | 0.00 | 0.00 | 55 | 1015.0 |
| 20260501223627 | 67 | 90 | 0.0 | 3.0 | 0.00 | 0.00 | 0.00 | 55 | 1015.0 |
| 20260501223604 | 67 | 26 | 1.0 | 4.0 | 0.00 | 0.00 | 0.00 | 55 | 1015.0 |
| 20260501222815 | 67 | 59 | 1.0 | 3.0 | 0.00 | 0.00 | 0.00 | 55 | 1014.9 |
| 20260501222026 | 67 | 51 | 1.0 | 3.0 | 0.00 | 0.00 | 0.00 | 55 | 1015.0 |
| 20260501221526 | 67 | 42 | 1.0 | 3.0 | 0.00 | 0.00 | 0.00 | 56 | 1014.9 |
| 20260501221023 | 67 | 83 | 1.0 | 3.0 | 0.00 | 0.00 | 0.00 | 56 | 1015.0 |
| 20260501220524 | 67 | 123 | 1.0 | 3.0 | 0.00 | 0.00 | 0.00 | 55 | 1015.0 |
| 20260501220023 | 67 | 150 | 1.0 | 3.0 | 0.00 | 0.00 | 0.00 | 56 | 1014.9 |
| 20260501215526 | 67 | 151 | 1.0 | 4.0 | 0.00 | 0.00 | 0.00 | 55 | 1015.0 |
| 20260501215024 | 67 | 131 | 1.0 | 5.0 | 0.00 | 0.00 | 0.00 | 55 | 1014.8 |
| 20260501214524 | 67 | 24 | 2.0 | 6.0 | 0.00 | 0.00 | 0.00 | 55 | 1014.9 |
| 20260501214023 | 67 | 346 | 2.0 | 6.0 | 0.00 | 0.00 | 0.00 | 54 | 1014.9 |
| 20260501213524 | 67 | 60 | 2.0 | 5.0 | 0.00 | 0.00 | 0.00 | 55 | 1014.9 |
| 20260501213024 | 67 | 296 | 1.0 | 5.0 | 0.00 | 0.00 | 0.00 | 55 | 1015.0 |
| 20260501212524 | 67 | 219 | 1.0 | 7.0 | 0.00 | 0.00 | 0.00 | 55 | 1015.1 |
| 20260501212022 | 67 | 42 | 2.0 | 7.0 | 0.00 | 0.00 | 0.00 | 55 | 1015.1 |
| 20260501211521 | 67 | 28 | 2.0 | 6.0 | 0.00 | 0.00 | 0.00 | 55 | 1015.1 |
| 20260501211022 | 66 | 15 | 2.0 | 9.0 | 0.00 | 0.00 | 0.00 | 55 | 1015.3 |
| 20260501210522 | 66 | 118 | 2.0 | 9.0 | 0.00 | 0.00 | 0.00 | 55 | 1015.4 |
| 20260501210021 | 66 | 292 | 3.0 | 9.0 | 0.00 | 0.00 | 0.00 | 55 | 1015.4 |
| 20260501205522 | 66 | 38 | 3.0 | 9.0 | 0.00 | 0.00 | 0.00 | 55 | 1015.5 |
| 20260501205314 | 66 | 348 | 3.0 | 8.0 | 0.00 | 0.00 | 0.00 | 55 | 1015.5 |
| 20260501204520 | 66 | 351 | 3.0 | 9.0 | 0.00 | 0.00 | 0.00 | 55 | 1015.4 |
| 20260501204020 | 66 | 53 | 4.0 | 13.0 | 0.00 | 0.00 | 0.00 | 55 | 1015.6 |
| 20260501203520 | 66 | 355 | 3.0 | 13.0 | 0.00 | 0.00 | 0.00 | 55 | 1015.7 |
| 20260501203020 | 66 | 20 | 2.0 | 8.0 | 0.00 | 0.00 | 0.00 | 55 | 1016.0 |
| 20260501202519 | 66 | 42 | 2.0 | 8.0 | 0.00 | 0.00 | 0.00 | 56 | 1015.9 |
| 20260501202019 | 66 | 19 | 3.0 | 10.0 | 0.00 | 0.00 | 0.00 | 55 | 1016.2 |
| 20260501201524 | 66 | 0 | 3.0 | 10.0 | 0.00 | 0.00 | 0.00 | 55 | 1016.0 |
| 20260501201020 | 66 | 11 | 3.0 | 9.0 | 0.00 | 0.00 | 0.00 | 55 | 1015.9 |
| 20260501200517 | 66 | 349 | 4.0 | 9.0 | 0.00 | 0.00 | 0.00 | 55 | 1015.8 |
| 20260501200016 | 66 | 17 | 4.0 | 11.0 | 0.00 | 0.00 | 0.00 | 54 | 1015.7 |
| 20260501195516 | 66 | 51 | 4.0 | 11.0 | 0.00 | 0.00 | 0.00 | 55 | 1015.5 |
| 20260501195016 | 66 | 88 | 4.0 | 13.0 | 0.00 | 0.00 | 0.00 | 56 | 1015.5 |
| 20260501194515 | 66 | 52 | 4.0 | 13.0 | 0.00 | 0.00 | 0.00 | 55 | 1015.9 |
| 20260501194016 | 65 | 44 | 4.0 | 10.0 | 0.00 | 0.00 | 0.00 | 55 | 1015.5 |
| 20260501193518 | 65 | 28 | 4.0 | 13.0 | 0.00 | 0.00 | 0.00 | 54 | 1015.5 |
| 20260501193015 | 65 | 30 | 5.0 | 13.0 | 0.00 | 0.00 | 0.00 | 54 | 1015.6 |
| 20260501192811 | 65 | 44 | 5.0 | 13.0 | 0.00 | 0.00 | 0.00 | 54 | 1015.5 |
| 20260501192017 | 65 | 20 | 5.0 | 15.0 | 0.00 | 0.00 | 0.00 | 54 | 1015.1 |
| 20260501191515 | 65 | 321 | 5.0 | 15.0 | 0.00 | 0.00 | 0.00 | 53 | 1015.2 |
| 20260501191016 | 66 | 332 | 5.0 | 14.0 | 0.00 | 0.00 | 0.00 | 52 | 1015.4 |
| 20260501190515 | 66 | 5 | 4.0 | 12.0 | 0.00 | 0.00 | 0.00 | 52 | 1015.7 |
| 20260501190114 | 66 | 80 | 6.0 | 13.0 | 0.00 | 0.00 | 0.00 | 51 | 1015.6 |
| 20260501190051 | 66 | 313 | 5.0 | 13.0 | 0.00 | 0.00 | 0.00 | 52 | 1015.7 |
| 20260501185305 | 67 | 115 | 6.0 | 12.0 | 0.00 | 0.00 | 0.00 | 50 | 1015.3 |
| 20260501184505 | 66 | 5 | 6.0 | 14.0 | 0.00 | 0.00 | 0.00 | 52 | 1015.3 |
| 20260501184004 | 66 | 28 | 5.0 | 14.0 | 0.00 | 0.00 | 0.00 | 53 | 1015.5 |